Location: Hillern
(53.0557°N, 9.8577°E)
Time: 20:29:13
(UTC+00:00)

Cosmos 1633 Rocket - Pass Details

Date: 19 May 2025
Orbit: 600 x 618 km, 82.5° (Epoch: 20 June)

Event Time Altitude Azimuth Distance (km) Brightness Sun altitude
Rises 22:52:01 0° 353° (N) 2,888 8.3 -16.8°
Reaches altitude 10° 22:54:23 10° 2° (N) 1,975 7.0 -16.8°
Maximum altitude 22:58:29 38° 71° (ENE) 938 4.1 -16.9°
Enters shadow 23:00:54 21° 127° (SE) 1,389 4.5 -16.9°
